Location: Prairie View Elementary School
(39.8322°N, 99.5698°W)
Time: 03:11:58
(UTC+00:00)

Aureole 1 Rocket - Pass Details

Date: 08 December 2019
Orbit: 378 x 1382 km, 73.9° (Epoch: 25 January)

Event Time Altitude Azimuth Distance (km) Brightness Sun altitude
Exits shadow 10:52:47 60° 135° (SE) 1,073 4.3 -32.6°
Drops below altitude 10° 10:58:37 10° 157° (SSE) 2,976 6.8 -31.5°
Sets 11:01:37 0° 159° (SSE) 4,070 7.6 -30.9°
